Weather History for DAOO - October, 2013

Change the Weather History Date:

Thursday, October 24, 2013

  Actual Average Record
Temperature  
Mean Temperature 72 °F -  
Max Temperature 87 °F 71 °F - ()
Min Temperature 57 °F 50 °F - ()
Cooling Degree Days 7    
Growing Degree Days 22 (Base 50)    
Moisture  
Dew Point 60 °F    
Average Humidity 72    
Maximum Humidity 100    
Minimum Humidity 23    
Precipitation  
Precipitation 0.00 in 0.05 in - ()
Sea Level Pressure  
Sea Level Pressure 30.03 in    
Wind  
Wind Speed 3 mph ()    
Max Wind Speed 13 mph    
Max Gust Speed -    
Visibility 9.9 miles    
Events      
T = Trace of Precipitation, MM = Missing Value Source: Averaged Metar Reports

Daily Weather History Graph

Daily Weather History Graph

Search for Another Location

Airport or City:

Trip Planner

Search our weather history database for the weather conditions in past years. The results will help you decide how hot, cold, wet, or windy it might be!

Date:

Astronomy

Oct. 24, 2013 Rise Set
Actual Time 7:16 AM CET 6:15 PM CET
Civil Twilight 6:50 AM CET 6:41 PM CET
Nautical Twilight 6:20 AM CET 7:11 PM CET
Astronomical Twilight 5:51 AM CET 7:41 PM CET
Moon 10:31 PM CET (10/24) 12:02 PM CET (10/24)
Length of Visible Light 11h 50m
Length of Day
10h 58m
Waning Gibbous, 73% of the Moon is Illuminated
Oct 24
Waning Gibbous
Oct 27
Last Quarter
Nov 3
New
Nov 10
First Quarter
Nov 17
Full

Hourly Weather History & Observations

Time (CET) Temp. Heat Index Dew Point Humidity Pressure Visibility Wind Dir Wind Speed Gust Speed Precip Events Conditions
12:00 AM 64.4 °F - 60.8 °F 88% 30.09 in 6.2 mi SW 2.3 mph - N/A   Scattered Clouds
12:30 AM 64.4 °F - 60.8 °F 88% 30.09 in 6.2 mi Calm Calm - N/A   Scattered Clouds
1:00 AM 64 °F - 61 °F 87% 30.07 in 9 mi Calm Calm - -   Partly Cloudy
1:00 AM 64.4 °F - 60.8 °F 88% 30.09 in - Calm Calm - N/A   Clear
1:30 AM 64.4 °F - 60.8 °F 88% 30.09 in - SSE 2.3 mph - N/A   Clear
2:00 AM 62.6 °F - 59.0 °F 88% 30.06 in - Calm Calm - N/A   Clear
2:30 AM 62.6 °F - 59.0 °F 88% 30.06 in - Calm Calm - N/A   Clear
3:00 AM 62.6 °F - 59.0 °F 88% 30.06 in - Calm Calm - N/A   Clear
3:30 AM 60.8 °F - 59.0 °F 94% 30.06 in - South 2.3 mph - N/A   Clear
4:00 AM 60 °F - 57 °F 86% 30.06 in 9 mi Calm Calm - -   Scattered Clouds
4:00 AM 59.0 °F - 57.2 °F 94% 30.06 in - Calm Calm - N/A   Clear
4:30 AM 59.0 °F - 57.2 °F 94% 30.06 in - Calm Calm - N/A   Clear
5:00 AM 59.0 °F - 57.2 °F 94% 30.06 in - Calm Calm - N/A   Clear
5:30 AM 59.0 °F - 57.2 °F 94% 30.06 in - Calm Calm - N/A   Clear
6:00 AM 59.0 °F - 57.2 °F 94% 30.06 in - Calm Calm - N/A   Clear
6:30 AM 59.0 °F - 57.2 °F 94% 30.06 in - East 2.3 mph - N/A   Clear
7:00 AM 59 °F - 59 °F 99% 30.04 in 12 mi North 2.3 mph - -   Scattered Clouds
7:00 AM 59.0 °F - 59.0 °F 100% 30.06 in - North 2.3 mph - N/A   Clear
7:30 AM 59.0 °F - 59.0 °F 100% 30.06 in - NNE 2.3 mph - N/A   Clear
8:00 AM 60.8 °F - 59.0 °F 94% 30.06 in - North 3.5 mph - N/A   Clear
8:30 AM 64.4 °F - 60.8 °F 88% 30.06 in - NE 3.5 mph - N/A   Clear
9:00 AM 66.2 °F - 62.6 °F 88% 30.06 in - NE 2.3 mph - N/A   Clear
9:30 AM 69.8 °F - 62.6 °F 78% 30.04 in - ENE 6.9 mph - N/A   Clear
10:00 AM 72 °F - 60 °F 57% 30.04 in 12 mi ENE 2.3 mph - -   Scattered Clouds
10:00 AM 71.6 °F - 60.8 °F 69% 30.06 in - ENE 2.3 mph - N/A   Clear
10:30 AM 75.2 °F - 60.8 °F 61% 30.06 in - ENE 2.3 mph - N/A   Clear
11:00 AM 77.0 °F - 60.8 °F 57% 30.06 in - NNE 4.6 mph - N/A   Clear
11:30 AM 80.6 °F 81.5 °F 60.8 °F 51% 30.06 in - NE 4.6 mph - N/A   Clear
12:00 PM 82.4 °F 81.7 °F 55.4 °F 39% 30.04 in - North 6.9 mph - N/A   Clear
12:30 PM 84.2 °F 83.0 °F 55.4 °F 37% 30.01 in - NE 5.8 mph - N/A   Clear
1:00 PM 86 °F - 56 °F 26% 30.00 in 12 mi NE 2.3 mph - -   Scattered Clouds
1:00 PM 86.0 °F 84.9 °F 57.2 °F 37% 30.01 in - NE 2.3 mph - N/A   Clear
1:30 PM 86.0 °F 84.9 °F 57.2 °F 37% 29.98 in - North 5.8 mph - N/A   Clear
2:00 PM 86.0 °F 85.4 °F 59.0 °F 40% 29.98 in - NNW 10.4 mph - N/A   Clear
3:00 PM 86.0 °F 84.5 °F 55.4 °F 35% 29.98 in - NNW 10.4 mph - N/A   Clear
3:30 PM 86.0 °F 84.5 °F 55.4 °F 35% 29.98 in - North 10.4 mph - N/A   Clear
4:00 PM 87 °F - 54 °F 23% 29.98 in 12 mi WSW 8.1 mph - -   Scattered Clouds
4:00 PM 86.0 °F 84.5 °F 55.4 °F 35% 29.98 in - North 8.1 mph - N/A   Clear
5:00 PM 78.8 °F - 60.8 °F 54% 29.95 in - North 12.7 mph - N/A   Clear
5:30 PM 77.0 °F - 60.8 °F 57% 29.98 in - North 11.5 mph - N/A   Clear
6:00 PM 77.0 °F - 66.2 °F 69% 29.98 in - North 9.2 mph - N/A   Clear
6:30 PM 75.2 °F - 66.2 °F 73% 29.98 in - North 9.2 mph - N/A   Clear
7:00 PM 73 °F - 68 °F 78% 29.99 in 12 mi North 8.1 mph - -   Scattered Clouds
7:00 PM 73.4 °F - 68.0 °F 83% 30.01 in - North 8.1 mph - N/A   Clear
7:30 PM 71.6 °F - 68.0 °F 88% 30.01 in - NNE 3.5 mph - N/A   Clear
8:00 PM 71.6 °F - 66.2 °F 83% 29.98 in - NNE 2.3 mph - N/A   Clear
8:30 PM 71.6 °F - 64.4 °F 78% 29.98 in - East 4.6 mph - N/A   Clear
9:00 PM 69.8 °F - 60.8 °F 73% 29.98 in - NE 2.3 mph - N/A   Clear
9:30 PM 69.8 °F - 60.8 °F 73% 29.98 in - North 3.5 mph - N/A   Clear
10:00 PM 69 °F - 61 °F 68% 29.98 in 9 mi North 4.6 mph - -   Scattered Clouds
10:00 PM 69.8 °F - 60.8 °F 73% 29.98 in - North 4.6 mph - N/A   Clear
10:30 PM 69.8 °F - 60.8 °F 73% 29.98 in - North 2.3 mph - N/A   Clear
11:00 PM 68.0 °F - 60.8 °F 78% 29.98 in - NNW 4.6 mph - N/A   Clear
11:30 PM 68.0 °F - 60.8 °F 78% 29.98 in - North 3.5 mph - N/A   Clear